www.pogodaiklimat.ru

Погода и климат >> Архив погоды >> Финляндия >> Соданкюля


ПОГОДА в Соданкюля

  • Прогноз погоды в Соданкюля
  • Монитор погоды в Соданкюля

АРХИВ ПОГОДЫ в Соданкюля

Время (UTC), дата Ветер
(напр.,м/с)
 
Видим.   Явления Облачность Т
(С)
Тd
(С)
f
(%)
Тe
(С)
Тes
(С)
Комфортность P
(гПа)
Po
(гПа)
Тmin
(С)
Tmax
(С)
R
(мм)
R24
(мм)
S
(см)
12 16.07 С 4-8
{9}
35 км 1/0 1000 м
[]
+14.8 +2.9 45 +14 +20 1014.0 992.6
15 16.07 С 3-7
{7}
40 км 1/0 1000 м
[]
+14.1 +3.3 48 +13 +17 1014.4 993.0
18 16.07 СВ 2-3
{6}
50 км 1/1 1000 м
[]
+12.4 +4.5 59 +12 +12 1014.6 993.0 +11.4 +15.3
21 16.07 С 2-2
{3}
40 км 6/0 1000 м
[]
+8.7 +4.8 76 +7 +7 1015.0 993.2
00 17.07 С 2-3
{3}
50 км 10/0 1000 м
[]
+9.1 +5.8 80 +7 +7 1015.1 993.3
03 17.07 С 2-5
{5}
50 км 10/0 1000 м
[]
+8.7 +5.5 80 +7 +7 1014.8 992.9
06 17.07 С 1-3
{4}
50 км 10/10 600 м
[]
+9.4 +5.3 76 +9 +9 1014.3 992.5 +8.4 +12.4
09 17.07 Ю 1-2
{3}
45 км 10/10 600 м
[]
+11.5 +5.4 66 +12 +12 1014.2 992.6
12 17.07 СЗ 1-2
{3}
50 км 10/0 1000 м
[]
+12.5 +4.7 59 +13 +18 1013.7 992.2
15 17.07 ЮЗ 2-3
{3}
50 км 10/0 1000 м
[]
+13.2 +5.3 59 +13 +15 1013.6 992.1
18 17.07 Ю 2-3
{3}
50 км 6/6 1000 м
[]
+13.0 +4.9 58 +12 +13 1013.7 992.2 +9.4 +13.4
21 17.07 штиль 0-1
{2}
50 км 4/0
[]
+8.1 +5.6 84 +7 +7 1014.8 992.9
00 18.07 штиль 0-1
{2}
50 км ясно +3.6 +2.7 94 +2 +2 1016.0 993.7
03 18.07 СЗ 2-3
{3}
45 км {метель} 9/0 1000 м
[]
+6.1 +5.6 97 +3 +4 1016.2 994.2
06 18.07 В 3-4
{4}
45 км {туман, метель} 1/1 300 м
[]
+13.3 +8.6 73 +12 +16 1015.9 994.4 +3.1 +13.4
09 18.07 В 3-4
{5}
50 км 1/1 1000 м
[]
+15.0 +7.5 61 +14 +22 1015.8 994.3
12 18.07 В 4-6
{7}
45 км 9/0 1500 м
[]
+16.7 +8.5 58 +16 +20 1015.6 994.4
15 18.07 ЮВ 4-6
{7}
50 км в посл. час дождь {ливн. осадки} 10/0 1500 м
[]
+14.4 +10.3 76 +13 +15 1016.3 994.8
18 18.07 В 2-3
{4}
12 км слаб. дождь 9/9 300 м
[]
+12.8 +11.8 94 +12 +12 1016.6 995.0 +12.8 +17.3 0.3
21 18.07 В 3-5
{5}
16 км слаб. дождь 9/4 100 м
[]
+12.1 +11.6 97 +10 +10 1015.8 994.2 2
00 19.07 СВ 1-2
{2}
2800 м слаб. ливневой дождь 10/10 <50 м
[]
+11.1 +10.8 98 +11 +11 1015.7 994.0 0.2
03 19.07 С 1-1
{2}
6000 м дымка {ливн. осадки, дождь} 10/10 <50 м
[]
+11.5 +11.2 98 +11 +11 1015.2 993.5
06 19.07 штиль 0-1
{1}
50 км {ливн. осадки, дождь} 10/10 200 м
[]
+12.8 +11.2 90 +12 +12 1015.0 993.4 +11.1 +12.8 6
09 19.07 З 1-1
{2}
50 км 9/9 300 м
[]
+14.4 +11.4 82 +15 +16 1014.7 993.3
12 19.07 В 3-4
{4}
50 км 9/9 300 м
[]
+15.8 +11.4 75 +15 +16 1014.6 993.3
15 19.07 В 3-4
{5}
50 км 10/0 1500 м
[]
+16.2 +11.3 73 +16 +18 1014.2 992.9
18 19.07 ЮВ 1-2
{4}
50 км ясно +14.8 +11.4 80 +15 +16 1014.3 993.0 +12.8 +16.9
21 19.07 ЮВ 1-1
{2}
35 км ясно +10.5 +9.2 92 +10 +10 1015.0 993.3
00 20.07 штиль 0-1
{2}
29 км 9/9 <50 м
[]
+6.8 +6.2 96 +6 +6 1015.7 993.7
03 20.07 штиль 0-1
{1}
700 м туман {дымка} ?/? +8.6 +8.5 99 +8 +8 1015.7 993.8
06 20.07 ЮЗ 1-1
{1}
40 км {туман, метель} ясно +15.3 +11.6 79 +16 +22 1015.1 993.7 +6.8 +15.3
09 20.07 ЮЗ 1-2
{3}
35 км 1/0 1000 м
[]
+20.5 +9.9 51 +23 +34 комфорт 1014.7 993.7
12 20.07 В 1-2
{3}
50 км ясно +21.0 +8.4 44 +23 +34 комфорт 1014.5 993.5
15 20.07 Ю 1-3
{3}
45 км ясно +22.4 +8.0 40 +24 +28 комфорт 1014.0 993.2
18 20.07 ЮВ 2-3
{5}
50 км ясно +20.0 +9.6 51 +22 +22 комфорт 1014.2 993.2 +15.3 +22.9
21 20.07 ЮВ 2-2
{3}
50 км ясно +13.9 +11.3 84 +13 +13 1015.5 994.0
00 21.07 ЮВ 1-2
{2}
45 км ясно +9.8 +8.8 93 +9 +9 1016.3 994.5
03 21.07 ЮВ 1-2
{2}
40 км ясно +11.1 +10.3 95 +11 +12 1016.5 994.8
06 21.07 ЮВ 1-2
{3}
50 км 6/6
[]
+18.8 +9.5 55 +21 +23 комфорт 1016.1 995.0 +9.0 +20.1
09 21.07 Ю 3-6
{7}
30 км 6/6 2000 м
[]
+22.8 +9.0 41 +24 +27 комфорт 1015.8 995.0
12 21.07 Ю 3-6
{7}
30 км 1/0 1500 м
[]
+25.1 +8.9 36 +26 +33 жарко 1015.4 994.7
15 21.07 Ю 2-4
{5}
40 км {ливн. осадки, дождь} 4/0
[]
+23.7 +11.7 47 +25 +29 комфорт 1014.9 994.2
18 21.07 Ю 2-4
{5}
50 км {ливн. осадки, дождь} 1/1
[]
+21.6 +11.8 54 +24 +24 комфорт 1015.0 994.1 +18.8 +25.6
21 21.07 ЮВ 2-2
{4}
50 км 6/0
[]
+15.9 +11.9 77 +16 +16 1016.2 994.9
00 22.07 ЮВ 2-3
{4}
50 км ясно +13.2 +11.0 87 +12 +12 1016.8 995.2
03 22.07 ЮВ 2-3
{3}
50 км ясно +15.4 +11.6 78 +15 +16 1016.7 995.3
06 22.07 Ю 2-4
{5}
45 км ясно +21.6 +11.5 53 +24 +29 комфорт 1016.0 995.1 +11.0 +21.6
09 22.07 ЮЗ 2-5
{6}
45 км ясно +25.9 +9.7 36 +27 +36 жарко 1015.5 994.9
12 22.07 Ю 2-5
{6}
30 км 1/0 2000 м
[]
+27.2 +7.4 29 +27 +35 жарко 1014.9 994.4
15 22.07 Ю 2-4
{5}
40 км ясно +26.1 +7.4 30 +26 +30 жарко 1014.3 993.7
18 22.07 Ю 2-2
{8}
50 км ясно +23.4 +10.1 43 +25 +26 комфорт 1014.4 993.6 +21.6 +28.1
21 22.07 Ю 1-1
{2}
50 км ясно +15.9 +12.8 82 +17 +17 1015.6 994.3
00 23.07 Ю 2-3
{3}
45 км ясно +11.6 +10.1 91 +10 +10 1016.6 994.9
03 23.07 ЮВ 2-2
{2}
45 км ясно +14.3 +11.5 83 +14 +15 1016.6 995.1
06 23.07 Ю 1-1
{1}
40 км ясно +22.9 +13.0 54 +26 +32 жарко 1015.8 994.9 +10.9 +23.4
09 23.07 Ю 1-6
{6}
35 км 6/4 1500 м
[]
+26.7 +9.4 34 +27 +33 жарко 1015.5 994.9

 

Местоположение метеостанции Соданкюля (Финляндия): широта 67.37 долгота 26.63 высота над уровнем моря 179 м.

В архиве по умолчанию представлена погода в Соданкюля за последнюю неделю. Архивные данные за месяц целиком и за предыдущие месяцы, начиная с января 2011 года, Вы можете получить, выбрав интересующий диапазон дат из раскрывающегося списка и нажав кнопку "Ввод!".


*Определитесь, кто Вы:
робот инопланетянин человек

Внимание! Время в таблицах - всемирное. Для получения местного времени необходимо прибавить поправку, которая равна 1 ч.

Смотрите также архив погоды в соседних городах и на ближайших метеорологических станциях:

Погода в Пюхе (Финляндия) (47 км)
Погода в Савукоски (Финляндия) (67 км)
Погода в Соданкила Локка (Финляндия) (69 км)
Погода на Аэродроме Кемиярви (Финляндия) (76 км)
Погода в Киттиля (Финляндия) (80 км)
Погода в Соданкила Вуотсо (Финляндия) (82 км)
Погода в Киттиля (Финляндия) (84 км)
Погода в Киттила Левитунтури (Финляндия) (88 км)
Погода в Рованиеми Апукка (Финляндия) (92 км)
Погода в Киттила Покка (Финляндия) (96 км)

Пояснения к столбцам:

Ветер - указаны скорость ветра в м/с - средняя за 10 мин, порывы в срок и между сроками (в фигурных скобках) и направление, откуда дует ветер: С - северный, СВ - северо-восточный, В - восточный, ЮВ - юго-восточный, Ю - южный, ЮЗ - юго-западный, З - западный, СЗ - северо-западный.
Видимость - горизонтальная дальность видимости в метрах или километрах. При видимости от 1 до 10 км при отсутствии осадков обычно наблюдается дымка, при ухудшении видимости до 1 км и менее - туман. В сухую погоду видимость может ухудшаться дымом, пылью или мглою.
Явления - указаны атмосферные явления, наблюдавшиеся в срок или в последний час перед сроком; фигурными скобками обозначены явления, наблюдавшиеся между сроками (за 1-3 часа до срока); квадратными скобками обозначены град или гололедные отложения с указанием их диаметра в мм.
Облачность - указаны через наклонную черту общая и нижняя облачность в баллах и высота нижней границы облаков в метрах; квадратными скобками обозначены формы облаков: Ci - перистые, Cs - перисто-слоистые, Cc - перисто-кучевые, Ac - высококучевые, As - высокослоистые, Sc - слоисто-кучевые, Ns - слоисто-дождевые, Cu - кучевые, Cb - кучево-дождевые. Подробнее классификацию облаков см. в Атласе облаков (PDF).
T - Температура воздуха - температура, измеренная на высоте 2 м над землей.
Td - Температура точки росы - температура, при понижении до которой содержащийся в воздухе водяной пар достигнет насыщения.
f - Относительная влажность воздуха - влажноcть воздуха, измеренная на высоте 2 м над землей.
Te - Эффективная температура - температура, которую ощущает одетый по сезону человек в тени. Характеристика душности погоды. При расчете учитывается влияние влажности воздуха и скорости ветра на теплоощущения человека.
Tes - Эффективная температура на солнце - температура, которую ощущает человек, с поправкой на солнечный нагрев. Характеристика знойности погоды. Зависит от высоты солнца над горизонтом, облачности и скорости ветра. Ночью, в пасмурную погоду, а также при ветре 12 м/с и более поправка равна нулю.
P - Атмосферное давление - приведенное к уровню моря атмосферное давление.
Po - Атмосферное давление - измеренное на уровне метеостанции атмосферное давление.
Tmin - Минимальная температура - минимум температуры воздуха на высоте 2 м над землей.
Tmax - Максимальная температура - максимум температуры воздуха на высоте 2 м над землей.
R - Количество осадков - Количество выпавших осадков за период времени, мм. При наведении курсора мыши на число - период времени, за который выпало указанное количество осадков.
R24 - Количество осадков - Количество выпавших осадков за 24 часа, мм.
S - Снежный покров - Высота снежного покрова, см. При наведении курсора мыши на число - состояние снежного покрова и степень покрытия местности в баллах.